User: anonymous   Login
Location: Caltech
(34.1382°N, 118.1253°W)
Time: 00:29:57
(UTC-08:00)
Language:

Oscar 11 - Orbit

View from above orbital plane
View from above orbital plane
View from above satellite
View from above satellite

Ground track
Ground track

The orbit data is extracted from the following two-line orbital elements,

1 14781U 84021B   14353.93728495  .00002154  00000-0  27790-3 0  6930
2 14781 097.8286 050.2242 0007344 299.6782 060.3699 14.82012906655472
Epoch (UTC): 19 December 2014 22:29:41
Eccentricity: 0.0007344
inclination: 97.8286°
perigee height: 618 km
apogee height: 628 km
right ascension of ascending node: 50.2242°
argument of perigee: 299.6782°
revolutions per day: 14.82012906
mean anomaly at epoch: 60.3699°
orbit number at epoch: 65547

The dashed part of the orbit path shows where the satellite is in the earth's shadow,  

DLR